Falfurrias, TX

1:15 PM CST on December 10, 2016 (GMT -0600)
Falfurrias

Weather History for KBKS - February, 2014

Change the Weather History Date:

Wednesday, February 12, 2014

  Actual Average (KNQI) Record (KNQI)
Temperature  
Mean Temperature 48 °F -  
Max Temperature 61 °F 70 °F 82 °F (2016)
Min Temperature 34 °F 50 °F 37 °F (2014)
Degree Days  
Heating Degree Days 18    
Moisture  
Dew Point 34 °F    
Average Humidity 65    
Maximum Humidity 91    
Minimum Humidity 35    
Precipitation  
Precipitation 0.00 in - - ()
Sea Level Pressure  
Sea Level Pressure 30.16 in    
Wind  
Wind Speed 6 mph (NNW)    
Max Wind Speed 13 mph    
Max Gust Speed 20 mph    
Visibility 10 miles    
Events      
Averages and records for this station are not official NWS values.
T = Trace of Precipitation, MM = Missing Value Source: NWS Daily Summary

Daily Weather History Graph

Daily Weather History Graph

Search for Another Location

Airport or City:

Trip Planner

Search our weather history database for the weather conditions in past years. The results will help you decide how hot, cold, wet, or windy it might be!

Date:

Astronomy

Feb. 12, 2014 Rise Set
Actual Time 7:11 AM CST 6:22 PM CST
Civil Twilight 6:47 AM CST 6:46 PM CST
Nautical Twilight 6:20 AM CST 7:13 PM CST
Astronomical Twilight 5:52 AM CST 7:40 PM CST
Moon 4:40 PM CST (2/12) 5:24 AM CST (2/12)
Length of Visible Light 11h 58m
Length of Day
11h 10m
Waxing Gibbous, 95% of the Moon is Illuminated
Feb 12
Waxing Gibbous
Feb 14
Full
Feb 22
Last Quarter
Mar 1
New
Mar 8
First Quarter

Hourly Weather History & Observations

Time (CST) Temp. Windchill Dew Point Humidity Pressure Visibility Wind Dir Wind Speed Gust Speed Precip Events Conditions
12:15 AM 40.1 °F 34.7 °F 36.1 °F 86% 30.22 in 10.0 mi NNW 8.1 mph - N/A   Overcast
12:35 AM 40.1 °F 35.3 °F 36.1 °F 86% 30.22 in 10.0 mi NNW 6.9 mph - N/A   Overcast
12:55 AM 40.1 °F 36.9 °F 36.0 °F 85% 30.22 in 10.0 mi North 4.6 mph - N/A   Overcast
1:15 AM 40.3 °F 35.5 °F 36.0 °F 85% 30.22 in 10.0 mi NNW 6.9 mph - N/A   Overcast
1:35 AM 40.3 °F 34.4 °F 36.1 °F 85% 30.24 in 10.0 mi NNW 9.2 mph - N/A   Overcast
1:55 AM 40.5 °F 33.2 °F 36.1 °F 85% 30.23 in 10.0 mi NNW 12.7 mph 18.4 mph N/A   Overcast
2:15 AM 40.1 °F 33.6 °F 35.2 °F 83% 30.22 in 10.0 mi NNW 10.4 mph - N/A   Mostly Cloudy
2:35 AM 39.6 °F 33.5 °F 34.9 °F 83% 30.22 in 10.0 mi NNW 9.2 mph - N/A   Scattered Clouds
2:55 AM 39.2 °F 33.0 °F 34.9 °F 84% 30.22 in 10.0 mi NNW 9.2 mph - N/A   Clear
3:15 AM 39.0 °F 33.4 °F 35.1 °F 86% 30.22 in 10.0 mi North 8.1 mph - N/A   Scattered Clouds
3:35 AM 38.7 °F 34.3 °F 34.9 °F 86% 30.20 in 10.0 mi North 5.8 mph - N/A   Clear
3:55 AM 38.5 °F 34.1 °F 35.1 °F 87% 30.19 in 10.0 mi North 5.8 mph - N/A   Scattered Clouds
4:15 AM 38.3 °F 34.8 °F 34.7 °F 87% 30.19 in 10.0 mi North 4.6 mph - N/A   Scattered Clouds
4:35 AM 37.8 °F 35.3 °F 34.7 °F 89% 30.18 in 10.0 mi NNW 3.5 mph - N/A   Clear
4:55 AM 37.8 °F 35.3 °F 34.3 °F 87% 30.19 in 10.0 mi NNW 3.5 mph - N/A   Clear
5:15 AM 37.9 °F - 34.2 °F 86% 30.18 in 10.0 mi Calm Calm - N/A   Clear
5:35 AM 37.4 °F 34.9 °F 33.8 °F 87% 30.18 in 10.0 mi WNW 3.5 mph - N/A   Clear
5:55 AM 36.9 °F 34.3 °F 34.0 °F 89% 30.20 in 10.0 mi NW 3.5 mph - N/A   Clear
6:15 AM 36.5 °F - 33.6 °F 89% 30.19 in 10.0 mi Calm Calm - N/A   Clear
6:35 AM 36.9 °F 34.3 °F 33.1 °F 86% 30.19 in 10.0 mi NNW 3.5 mph - N/A   Clear
6:55 AM 36.7 °F - 33.1 °F 87% 30.19 in 10.0 mi Calm Calm - N/A   Clear
7:15 AM 34.9 °F - 32.0 °F 89% 30.21 in 10.0 mi Calm Calm - N/A   Clear
7:35 AM 35.4 °F - 32.5 °F 89% 30.21 in 10.0 mi Calm Calm - N/A   Clear
7:55 AM 35.1 °F - 32.5 °F 91% 30.22 in 10.0 mi Calm Calm - N/A   Mostly Cloudy
8:15 AM 35.2 °F - 32.9 °F 91% 30.22 in 10.0 mi Calm Calm - N/A   Scattered Clouds
8:35 AM 38.3 °F 34.8 °F 34.7 °F 87% 30.22 in 10.0 mi NW 4.6 mph - N/A   Clear
8:55 AM 40.8 °F 35.0 °F 34.5 °F 78% 30.23 in 10.0 mi NW 9.2 mph - N/A   Clear
9:15 AM 42.3 °F 35.9 °F 34.5 °F 74% 30.24 in 10.0 mi NW 11.5 mph - N/A   Clear
9:35 AM 43.0 °F 37.7 °F 34.5 °F 72% 30.24 in 10.0 mi NNW 9.2 mph 17.3 mph N/A   Clear
9:55 AM 44.8 °F 39.0 °F 33.8 °F 65% 30.24 in 10.0 mi NNW 11.5 mph - N/A   Clear
10:15 AM 45.7 °F 41.0 °F 32.9 °F 61% 30.24 in 10.0 mi North 9.2 mph - N/A   Clear
10:35 AM 46.8 °F - 32.9 °F 59% 30.24 in 10.0 mi NW 9.2 mph - N/A   Clear
10:55 AM 47.1 °F - 33.1 °F 58% 30.23 in 10.0 mi NNW 9.2 mph - N/A   Clear
11:15 AM 48.6 °F - 33.8 °F 57% 30.23 in 10.0 mi NNW 9.2 mph - N/A   Clear
11:35 AM 49.6 °F - 34.2 °F 55% 30.23 in 10.0 mi NNW 9.2 mph 17.3 mph N/A   Clear
11:55 AM 50.7 °F - 34.2 °F 53% 30.22 in 10.0 mi NW 9.2 mph - N/A   Clear
12:15 PM 52.0 °F - 34.2 °F 51% 30.22 in 10.0 mi NNW 6.9 mph - N/A   Clear
12:35 PM 52.9 °F - 33.6 °F 48% 30.20 in 10.0 mi NW 11.5 mph 16.1 mph N/A   Clear
12:55 PM 53.8 °F - 33.1 °F 45% 30.19 in 10.0 mi NW 8.1 mph - N/A   Clear
1:15 PM 55.0 °F - 33.6 °F 44% 30.18 in 10.0 mi North 6.9 mph - N/A   Clear
1:35 PM 55.4 °F - 33.4 °F 43% 30.16 in 10.0 mi NNW 6.9 mph - N/A   Clear
1:55 PM 56.7 °F - 33.1 °F 41% 30.14 in 10.0 mi NW 10.4 mph - N/A   Clear
2:15 PM 57.2 °F - 33.6 °F 41% 30.12 in 10.0 mi North 5.8 mph - N/A   Clear
2:35 PM 58.1 °F - 33.6 °F 40% 30.11 in 10.0 mi WNW 9.2 mph - N/A   Clear
2:55 PM 58.6 °F - 33.4 °F 39% 30.10 in 10.0 mi NNW 11.5 mph 16.1 mph N/A   Clear
3:15 PM 59.5 °F - 33.8 °F 38% 30.09 in 10.0 mi NW 3.5 mph - N/A   Clear
3:35 PM 59.7 °F - 33.6 °F 37% 30.09 in 10.0 mi North 8.1 mph 16.1 mph N/A   Clear
3:55 PM 60.1 °F - 33.3 °F 36% 30.09 in 10.0 mi WNW 12.7 mph - N/A   Clear
4:15 PM 61.0 °F - 33.1 °F 35% 30.09 in 10.0 mi WNW 8.1 mph - N/A   Clear
4:35 PM 61.3 °F - 33.1 °F 35% 30.08 in 10.0 mi NNW 9.2 mph 19.6 mph N/A   Clear
4:55 PM 61.2 °F - 33.1 °F 35% 30.08 in 10.0 mi NNW 8.1 mph - N/A   Clear
5:15 PM 61.0 °F - 32.9 °F 35% 30.08 in 10.0 mi West 5.8 mph - N/A   Clear
5:35 PM 61.0 °F - 32.9 °F 35% 30.08 in 10.0 mi NNW 4.6 mph - N/A   Clear
5:55 PM 60.8 °F - 33.3 °F 36% 30.08 in 10.0 mi NNW 4.6 mph - N/A   Clear
6:15 PM 60.1 °F - 33.3 °F 36% 30.08 in 10.0 mi Calm Calm - N/A   Clear
6:35 PM 58.6 °F - 33.8 °F 39% 30.08 in 10.0 mi Calm Calm - N/A   Clear
6:55 PM 57.4 °F - 34.5 °F 42% 30.07 in 10.0 mi Calm Calm - N/A   Clear
7:15 PM 55.2 °F - 34.9 °F 46% 30.07 in 10.0 mi Calm Calm - N/A   Clear
7:35 PM 52.0 °F - 35.6 °F 54% 30.08 in 10.0 mi Calm Calm - N/A   Clear
7:55 PM 54.9 °F - 35.1 °F 47% 30.08 in 10.0 mi Calm Calm - N/A   Clear
8:15 PM 55.9 °F - 34.7 °F 45% 30.09 in 10.0 mi NNE 5.8 mph - N/A   Clear
8:35 PM 48.4 °F - 35.6 °F 61% 30.09 in 10.0 mi NE 4.6 mph - N/A   Clear
8:55 PM 49.6 °F - 35.2 °F 58% 30.11 in 10.0 mi NE 6.9 mph - N/A   Clear
9:15 PM 49.5 °F - 35.6 °F 59% 30.12 in 10.0 mi NE 5.8 mph - N/A   Clear
9:35 PM 48.2 °F - 35.8 °F 62% 30.13 in 10.0 mi NE 4.6 mph - N/A   Clear
9:55 PM 47.7 °F - 36.1 °F 64% 30.13 in 10.0 mi NE 4.6 mph - N/A   Clear
10:15 PM 47.3 °F - 36.1 °F 65% 30.12 in 10.0 mi ENE 4.6 mph - N/A   Clear
10:35 PM 46.6 °F - 36.5 °F 68% 30.13 in 10.0 mi Calm Calm - N/A   Clear
10:55 PM 44.8 °F - 36.1 °F 72% 30.13 in 10.0 mi Calm Calm - N/A   Clear
11:15 PM 43.7 °F 39.7 °F 35.2 °F 72% 30.13 in 10.0 mi SSW 6.9 mph - N/A   Clear
11:35 PM 42.1 °F - 35.4 °F 77% 30.13 in 10.0 mi Calm Calm - N/A   Clear
11:55 PM 42.3 °F 38.6 °F 35.6 °F 77% 30.13 in 10.0 mi SSW 5.8 mph - N/A   Clear